User: anonymous   Login
Location: Unspecified
(0.0000°N, 0.0000°E)
Time: 07:22:14
(UTC+00:00)
Language:

JAS-1B - Orbit

View from above orbital plane
View from above orbital plane
View from above satellite
View from above satellite

Ground track
Ground track

The orbit is defined by the following mean orbital elements,

1 20480U          26106.50735772 +.00000000 +00000-0 -50053-4 0 00006
2 20480  99.0707  40.8577 0539134 284.3175  69.8663 12.83488909    04
Epoch (UTC): 16 April 2026 12:10:35
Eccentricity: 0.0539134
inclination: 99.0707°
perigee height: 912 km
apogee height: 1743 km
right ascension of ascending node: 40.8577°
argument of perigee: 284.3175°
revolutions per day: 12.83488909
mean anomaly at epoch: 69.8663°

The dashed part of the orbit path shows where the satellite is in the earth's shadow,  

DLR